Location: Martz Observatory
(42.0083°N, 79.0667°W)
Time: 14:05:33
(UTC-04:00)

NPP - Pass Details

Date: 26 May 2018
Orbit: 826 x 828 km, 98.7° (Epoch: 18 June)

Event Time Altitude Azimuth Distance (km) Brightness Sun altitude
Rises 02:49:33 0° 16° (NNE) 3,375 8.3 -23.1°
Reaches altitude 10° 02:51:56 10° 19° (NNE) 2,437 7.2 -22.9°
Maximum altitude 02:57:18 66° 102° (ESE) 899 3.8 -22.4°
Enters shadow 02:59:02 42° 168° (SSE) 1,158 4.0 -22.3°
